BEIDOU-3 IGSO-2 (C39)

Last updated on Mon Sep 21 2026 00:03:26 GMT+0000 (Coordinated Universal Time)

1 44337U 19035A 26263.59231647 -.00000157 00000+0 00000+0 0 9997 2 44337 55.2499 158.0251 0038557 210.5112 323.9262 1.00271181 26623
UTC large
Height (km)
Speed (km/s)
/
Latitude / Longitude
Inclination (degrees)
Orbital Period (minutes)
Azimuth
Elevation
Range (km)
Doppler Factor

Next 0 passes for location: London (51.5072 / 0.1276)

No passes found over London.
BEIDOU-3 IGSO-2 (C39)